Regional Weather Roundup
Issued by NWS Pendleton, OR

Home | Current Version | Previous Version | Text Only | Print | Product List | Glossary On
Versions: 1 2 3 4 5 6 7 8 9 10 11 12 13 14 15 16 17 18 19 20 21 22 23 24 25 26 27 28 29 30 31 32 33 34 35 36 37 38 39 40 41 42 43 44 45 46 47 48 49 50
000
ASUS46 KPDT 291225
RWRPDT
PENDLETON REGIONAL WEATHER ROUNDUP
NATIONAL WEATHER SERVICE PENDLETON OREGON
500 AM PDT SUN MAR 29 2015

NOTE: FAIR INDICATES FEW OR NO CLOUDS BELOW 12,000 FEET WITH NO
SIGNIFICANT WEATHER AND/OR OBSTRUCTIONS TO VISIBILITY.

# INDICATES UNOFFICIAL STATION AND DATA

WAZ520-291310-
EAST SLOPES OF WASHINGTON CASCADES

CITY            SKY/WX      TMP DP  RH  WIND    PRES   REMARKS
#BUMPING DAM    N/A         37  N/A N/A CALM    N/A
#CLE ELUM HS    N/A         39  37  92  CALM    30.20F
#CLE ELUM LAKE  N/A         40  36  85  CALM    30.23F
#CLIFFDEL 2NW   N/A         37  35  92  CALM    N/A
#GLENWOOD       N/A         33  31  92  CALM    30.28F
#MANASTASH CYN  N/A         38  33  82  CALM    30.19F
#NELSON         N/A         39  37  92  CALM    30.28F
#NELSON 3SW     N/A         37  35  92  CALM    30.47F
#NILE           N/A         38  36  92  CALM    29.52F
#RONALD 2NW     N/A         41  -11 10  CALM    30.09F
#SNOWDEN        N/A         36  29  75  CALM    N/A
#TEANAWAY 4NE   N/A         39  38  96  CALM    N/A
#TROUT LAKE 1NE N/A         38  37  96  CALM    30.29F
$$

WAZ521-291310-
SIMCOE HIGHLANDS

CITY            SKY/WX      TMP DP  RH  WIND    PRES   REMARKS
#CENTERVILLE 4W N/A         43  37  79  N6      30.00F
#CENTERVILLE 1SWN/A         40  36  85  CALM    30.25F
#GOLDENDALE     N/A         41  37  86  CALM    N/A
#GOLDENDALE 1NE N/A         40  31  70  CALM    N/A
#GOLDENDALE 5WNWN/A         40  36  85  CALM    30.26F
#GOODNOE HILLS  N/A         46  39  76  NW8     N/A
#LYLE 6NE       N/A         42  39  89  CALM    30.26F
$$

WAZ026-291310-
KITTITAS VALLEY

CITY            SKY/WX      TMP DP  RH  WIND    PRES   REMARKS
ELLENSBURG AP   MOCLDY      41  36  82  E6      30.24F
6HR MIN TEMP:   40; 6HR MAX TEMP:   47;

#ELLENSBURG CWU N/A         40  36  85  CALM    30.20F
#ELLENSBURG 3NE N/A         37  35  92  E2      30.24F
#ELLENSBURG 1E  N/A         37  33  85  CALM    N/A
#KITTITAS 4N    N/A         38  34  85  E1      28.54F
#KITTITAS 3S    N/A         33  31  92  CALM    30.25F
#THORP 6N       N/A         41  38  89  NW7     30.27F
$$

WAZ027-291310-
YAKIMA VALLEY

CITY            SKY/WX      TMP DP  RH  WIND    PRES   REMARKS
SUNNYSIDE AP    MOCLDY      38  36  92  CALM    30.26F
YAKIMA AIRPORT  PTCLDY      43  36  76  W5      30.26F
6HR MIN TEMP:   41; 6HR MAX TEMP:   53;

YAKIMA-VAGABOND MOCLDY      39  36  89  SW3     30.25F
#DONALD 2NE     N/A         47  32  56  CALM    29.09F
#GRANDVIEW      N/A         43  36  76  CALM    30.27F
#MABTON         N/A         42  38  86  CALM    30.26F
#MOXEE 2E       N/A         40  32  73  S2      30.20F
#NACHES 2SW     N/A         46  39  76  W5      30.25F
#OUTLOOK DOT    N/A         N/A N/A N/A E2      N/A
#SELAH 8E       N/A         35  34  96  E2      N/A
#TERRACE HTS    N/A         41  36  82  CALM    30.22F
#TOPPENISH      N/A         45  39  79  CALM    30.17F
#WAPATO 4NE     N/A         47  32  56  CALM    29.09F
#WEST VALLEY    N/A         42  37  82  CALM    30.24F
#W YAKIMA       N/A         45  38  76  CALM    30.25F
#WHITE SWAN 5E  N/A         41  37  86  CALM    30.26F
#WILEY CITY 3W  N/A         41  33  73  CALM    30.26F
$$

WAZ028-291310-
LOWER COLUMBIA BASIN...WASHINGTON

CITY            SKY/WX      TMP DP  RH  WIND    PRES   REMARKS
PASCO           PTCLDY      50  38  63  SE5     30.28F
6HR MIN TEMP:   43; 6HR MAX TEMP:   51;

PROSSER AWOS    N/A         41  41  100 NE1     30.29F
RICHLAND AWOS   MOCLDY      50  39  66  CALM    30.28S
#BASIN CITY 5SW N/A         42  38  86  CALM    30.27S
#BENTON CITY    N/A         47  39  74  NW5     30.18S
#CONNELL 5N     N/A         41  37  86  CALM    30.27S
#CONNELL 5NW    N/A         42  38  86  CALM    30.23S
#ELTOPIA        N/A         44  40  86  CALM    30.23F
#ELTOPIA 6NW    N/A         43  38  82  CALM    29.23S
#KAHLOTUS       N/A         42  37  82  S5      30.27F
#KENNEWICK 3S   N/A         49  39  68  S3      30.27F
#PASCO-BROADMOORN/A         48  39  71  CALM    30.19S
#PATERSON       N/A         44  40  86  CALM    30.27F
#PROSSER        N/A         45  37  73  CALM    30.26F
#SAGEMOOR 2W    N/A         44  40  86  CALM    30.11F
#TOUCHET 2S     N/A         41  39  93  CALM    30.28S
#WEST PASCO     N/A         49  38  66  CALM    30.32F
$$

WAZ029-291310-
FOOTHILLS OF THE BLUES...WASHINGTON

CITY            SKY/WX      TMP DP  RH  WIND    PRES   REMARKS
WALLA WALLA AP  PTCLDY      47  39  74  CALM    30.28S
6HR MIN TEMP:   46; 6HR MAX TEMP:   51;

#DAYTON SCHOOL  N/A         43  32  65  N2      30.28F
#LOWDEN 2SE     N/A         42  40  93  CALM    30.25F
#PLEASANT VIEW 1N/A         44  37  76  S2      30.32F
#PRESCOTT       N/A         41  39  93  CALM    30.27F
#SUDBURY        N/A         43  N/A N/A CALM    N/A
#WHITMAN COLLEGEN/A         46  39  76  CALM    30.33S
#WAITSBURG 5S   N/A         46  37  71  CALM    30.38S
#WAITSBURG 8N   N/A         40  25  55  N1      30.15S
#WALLA WALLA 5E N/A         46  40  79  NE2     N/A
#WALLA WALLA U  N/A         46  40  79  CALM    30.29S
#WHITMAN MISSIONN/A         42  39  89  CALM    30.30S
$$

WAZ030-291310-
BLUE MOUNTAINS...WASHINGTON

CITY            SKY/WX      TMP DP  RH  WIND    PRES   REMARKS
#DIXIE 5SE      N/A         45  30  55  CALM    30.20F
$$

ORZ009-041-WAZ024-291310-
COLUMBIA RIVER GORGE

CITY            SKY/WX      TMP DP  RH  WIND    PRES   REMARKS
HOOD RIVER AP   PTCLDY      43  39  86  CALM    30.30F
THE DALLES AP   PTCLDY      46  41  83  CALM    30.29F
6HR MIN TEMP:   46; 6HR MAX TEMP:   53;

#ARLINGTON AIRPON/A         48  40  74  W5      29.98
#CELILO DOT     N/A         48  39  71  CALM    N/A
#LYLE           N/A         47  42  83  N2      30.31F
#MOSIER 1S      N/A         42  36  79  CALM    30.27S
#MURDOCK        N/A         48  45  89  NW8     30.31F
#RUFUS DOT      N/A         49  39  68  CALM    N/A

$$

ORZ510-291310-
NORTH CENTRAL OREGON

CITY            SKY/WX      TMP DP  RH  WIND    PRES   REMARKS
#CHENOWITH 1W   N/A         44  39  82  W8      N/A
#COW CYN RST AREN/A         42  33  70  E1      N/A
#DUFUR 9E       N/A         45  38  76  CALM    30.32F
#GRASS VALLEY 1SN/A         41  36  82  S7      30.29F
#KENT DOT       N/A         42  33  70  SE7     N/A
#MAUPIN SCHOOL  N/A         46  40  79  CALM    30.29F
#MORO SCHOOL    N/A         42  40  93  CALM    30.27F
#SHANIKO 5WSW   N/A         42  29  60  SE8     N/A
#SHANIKO 4NW    N/A         44  33  65  S5      30.26F
#TYGH VALLEY 2NEN/A         43  38  82  N1      30.27F
#WAPANITIA AIRPON/A         41  37  86  CALM    30.29F
#WASCO DOT      N/A         41  38  89  SE2     N/A
#WASCO AIRPORT  N/A         47  38  71  W2      N/A
#WASCO 5NE      N/A         42  38  86  CALM    30.28F
$$

ORZ511-291310-
CENTRAL OREGON

CITY            SKY/WX      TMP DP  RH  WIND    PRES   REMARKS
BEND AIRPORT    CLOUDY      36  28  72  S7      30.28F
MADRAS AIRPORT  MOCLDY      39  36  89  SE5     30.30F
PRINEVILLE AP   PTCLDY      30  27  88  CALM    30.29F
REDMOND AIRPORT CLOUDY      33  26  75  SE5     30.29F
6HR MIN TEMP:   32; 6HR MAX TEMP:   38;

#BEND 6E        N/A         33  24  69  CALM    30.27F
#BEND 1SW       N/A         36  31  82  NW1     N/A
#BEND-AWBREY    N/A         40  32  73  S3      30.28F
#BEND-KIM LN    N/A         38  30  73  SW5     30.26S
#CULVER         N/A         39  33  79  CALM    30.24F
#LAKE BILLY CHINN/A         40  24  52  S2      30.34F
#MADRAS         N/A         40  33  76  S2      N/A
#POWELL BUTTE   N/A         36  29  75  S2      29.88F
#PRINEVILLE 3N  N/A         32  30  92  E1      30.28F
#WARM SPRINGS   N/A         42  37  82  CALM    30.26F

$$


ORZ509-291310-
EAST SLOPES OF OREGON CASCADES

CITY            SKY/WX      TMP DP  RH  WIND    PRES   REMARKS
#BLUE BOX PASS  N/A         39  -11 11  CALM    N/A
#CAMP SHERMAN   N/A         31  28  88  CALM    30.34F
#LA PINE 4NW    N/A         25  21  84  CALM    30.39R
#LAVA BUTTE DOT N/A         31  26  81  CALM    N/A
#SISTERS AIRPOR N/A         32  32  100 CALM    30.17S
#SISTERS ODOT   N/A         32  N/A N/A CALM    N/A
#SISTERS 1NW    N/A         32  29  89  N5      N/A
#SISTERS 3N     N/A         32  24  72  CALM    30.28F
#SUNRIVER       N/A         31  27  85  SW1     30.22S
#TUMALO 3W      N/A         41  30  65  W3      30.17F
#WANOGA BUTTE D N/A         37  22  54  W2      N/A

$$

ORZ044-291310-
LOWER COLUMBIA BASIN...OREGON

CITY            SKY/WX      TMP DP  RH  WIND    PRES   REMARKS
HERMISTON       MOCLDY      46  38  73  CALM    30.28S
6HR MIN TEMP:   39; 6HR MAX TEMP:   47;

#BOARDMAN SCHOOLN/A         44  39  82  CALM    30.30S
#BOARDMAN 8SW   N/A         47  41  79  CALM    30.27F
#ECHO 8SW       N/A         47  39  74  SW5     30.25F
#IONE SCHOOL    N/A         46  29  51  CALM    30.27F
#IRRIGON 4NW    N/A         43  41  93  SE1     N/A
#UMATILLA       N/A         58  36  44  SW1     30.20F
$$

ORZ507-291310-
NORTHERN FOOTHILLS OF THE BLUES

CITY            SKY/WX      TMP DP  RH  WIND    PRES   REMARKS
PENDLETON AIRPT PTCLDY      43  38  82  SE8     30.28F
6HR MIN TEMP:   40; 6HR MAX TEMP:   44;

#ADAMS 3WNW     N/A         40  37  89  CALM    30.30S
#ATHENA         N/A         44  37  76  CALM    30.31F
#CAYUSE         N/A         46  37  71  E9      30.29S
#HELIX SCHOOL   N/A         41  37  86  CALM    30.29S
#HELIX 3N       N/A         42  37  82  S12     30.23S WCI 35
#HELIX 6SW      N/A         42  38  86  E2      30.27S
#HOLDMAN 5SE    N/A         45  40  82  CALM    30.27F
#HOLDMAN 6E     N/A         42  38  86  NW3     30.10S
#M-F FERNDALE   N/A         44  38  79  CALM    30.27S
#M-F GROVE ELEM N/A         46  35  65  CALM    30.25F
#M-FREEWATER 5SEN/A         47  37  68  CALM    30.27S
#PENDLETON DNTN N/A         42  34  73  NE2     30.28F
#PDT AQUATIC CTRN/A         43  32  65  E1      30.28F
#PENDLETON 5NE  N/A         40  38  92  CALM    30.24F
#PDT SUNRIDGE   N/A         40  37  89  CALM    30.30F
#PENDLETON 7NW  N/A         43  38  82  CALM    28.27
#PILOT ROCK     N/A         44  36  73  CALM    30.29F
#TUTUILLA       N/A         42  39  89  CALM    30.29F
#UMAPINE 2E     N/A         46  40  79  CALM    30.25F
#WESTON SCHOOL  N/A         49  32  52  SW1     30.26F

$$

ORZ508-291310-
SOUTHERN FOOTHILLS OF THE BLUES

CITY            SKY/WX      TMP DP  RH  WIND    PRES   REMARKS
LEXINGTON       CLOUDY      46  37  71  E10     30.29F
#AJAX           N/A         45  32  60  CALM    30.18F
#CONDON SCHOOL  N/A         41  36  82  CALM    30.22F
#CONDON 5W      N/A         41  33  73  S5      30.23F
#FOSSIL SCHOOL  N/A         38  34  85  CALM    30.24S
#HEPPNER EOC    N/A         43  36  76  E9      30.24F
#HEPPNER 4NE    N/A         43  35  73  CALM    30.28F
#LEXINGTON 2SE  N/A         45  38  76  SE6     30.24F
#MIKKALO        N/A         47  36  65  W2      30.25F
#OLEX 4N        N/A         47  39  74  S1      30.26F
#RUGGS 5NE      N/A         42  34  73  E1      30.43S
#RUGGS 2SW      N/A         44  33  65  SW7     30.31S

$$

ORZ502-503-291310-
BLUE MOUNTAINS

CITY            SKY/WX      TMP DP  RH  WIND    PRES   REMARKS
MEACHAM         CLOUDY      33  31  92  CALM    30.29S
6HR MIN TEMP:   29; 6HR MAX TEMP:   33;

#BATTLE MTN DOT N/A         34  34  100 S2      N/A
#HEPPNER 15SE   N/A         38  32  79  CALM    30.18F
#LADD CYN SMT   N/A         32  28  85  SE6     N/A
#LADD CREEK ODOTN/A         33  31  92  SW2     N/A
#LONG CREEK HS  N/A         36  33  89  CALM    30.25F
#N POWDER DOT   N/A         29  29  100 CALM    N/A
#PIKES PEAK     N/A         44  32  62  SW7     27.99S
#TOLLGATE       N/A         34  31  89  CALM    30.20S
#TROY SCHOOL    N/A         37  34  89  CALM    30.21S
#UKIAH          N/A         31  29  92  CALM    30.38S
#WESTON 4E      N/A         43  33  67  E6      30.25F
$$

ORZ505-291310-
JOHN DAY BASIN

CITY            SKY/WX      TMP DP  RH  WIND    PRES   REMARKS
JOHN DAY        CLEAR       38  29  70  SE8     30.30F
#JOHN DAY KJDY  N/A         35  34  96  CALM    30.47R
#DAYVILLE SCHOOLN/A         37  32  82  CALM    30.27S
#MITCHELL       N/A         37  33  85  E2      30.40S
#MONUMENT HS    N/A         38  33  82  CALM    30.31S
#MT. VERNON 5SE N/A         37  30  75  CALM    30.25F
#WINLOCK        N/A         39  31  73  CALM    30.35F
$$

ORZ506-291310-
OCHOCO AND JOHN DAY HIGHLANDS

CITY            SKY/WX      TMP DP  RH  WIND    PRES   REMARKS
#BUCK CREEK DOT N/A         39  39  100 SE7     N/A
#HORSE RIDGE DO N/A         24  19  81  E2      N/A
#KEYES SMT DOT  N/A         38  27  64  CALM    N/A
#PAULINA SCHOOL N/A         69  35  28  CALM    30.23F
#PINE MTN OBS   N/A         40  17  39  S5      N/A
#PRAIRIE CITY   N/A         24  19  81  CALM    30.54F
#SENECA         N/A         27  N/A N/A CALM    N/A
#SENECA 9NW     N/A         26  25  96  CALM    30.34R
$$

ORZ049-291310-
GRANDE RONDE VALLEY

CITY            SKY/WX      TMP DP  RH  WIND    PRES   REMARKS
LA GRANDE       MOCLDY      34  25  69  CALM    30.31F
#COVE           N/A         32  30  92  CALM    30.31R
#COVE SCHOOL    N/A         31  29  92  CALM    30.27S
#ELGIN 3N       N/A         31  28  88  CALM    30.27F
#ELGIN 1E       N/A         34  30  85  CALM    N/A
#IMBLER SCHOOL  N/A         34  31  89  CALM    30.26S
#ISLAND CITY 4N N/A         46  44  93  CALM    30.29S
#LADD CYN DOT   N/A         37  31  79  SE6     N/A
#UNION 1S       N/A         33  30  89  CALM    30.25S
$$

ORZ050-291310-
WALLOWA COUNTY

CITY            SKY/WX      TMP DP  RH  WIND    PRES   REMARKS
JOSEPH AIRPORT  MOCLDY      32  27  82  S3      30.30F
#ENTERPRISE HS  N/A         30  27  88  CALM    30.29S
#IMNAHA 10S     N/A         36  29  75  SW5     30.30S
#JOSEPH 3N      N/A         28  23  81  CALM    30.28F
#JOSEPH 3W      N/A         34  22  61  SW2     30.09F
#LOSTINE        N/A         29  27  92  CALM    30.15R
#MT HOWARD 8000 N/A         32  18  56  W7      30.28R
#PROMISE 1S     N/A         33  31  92  CALM    30.45S
#SHEEP RDG 7000 N/A         36  19  50  CALM    30.41S
#WALLOWA SCHOOL N/A         30  28  92  CALM    31.32R



$$



USA.gov is the U.S. government's official web portal to all federal, state and local government web resources and services.